Domov               UVHVVR             MKGP            O straneh              
ZDRAVSTVENO VARSTVO RASTLIN
  MREŽA AGROMET. POSTAJ
 ► PROGNOSTIČNA OBVESTILA
AGROMETEOROLOŠKI PODATKI -
ARSO
OBVLADOVANJE TVEGANJ ZARADI
NEUGODNIH VREMENSKIH RAZMER
  ► NARAVNE NESREČE
  ► SUŠA/MOČA
  ► NAMAKANJE
  ► ŽLED (gozdarstvo)
KARTOGRAFSKI PRIKAZI
SPLETNE POVEZAVE
PROJEKTI IN PUBLIKACIJE

AGROMETEOROLOŠKA MREŽA: VREMENSKE POSTAJE IN FENOLOŠKA OPAZOVANJA

Pregled podatkov za lokacijo Zavrhek, meteorološka postaja 37907

Pregled senzorjev na lokaciji

ID Ime Zadnja
vrednost
Datum
zadnje
spremembe
Tip
senzorja
1989 Temperatura 2 m ( °C) 10,4 °C 24.10.2017 10:29 50YA
1990 Relativna vlaga 2 m (% RH) 69,26 % RH 24.10.2017 10:29 50YA
1991 Padavine 0.2 mm (mm) 0 mm 24.10.2017 10:29 Rain-O-Matic

Pregled podatkov zadnjih 24 ur

Zap.
št.
Datum in čas Zavrhek
Padavine
0.2
mm
Relativna
vlaga
2
m
Temperatura
2
m
0 24.10.2017 09:30 0 69,26 10,4
1 24.10.2017 09:00 0 85,57 7,4
2 24.10.2017 08:30 0 99,49 4,47
3 24.10.2017 08:00 0 99,93 1,37
4 24.10.2017 07:30 0 99,93 0,61
5 24.10.2017 07:00 0 99,93 0,71
6 24.10.2017 06:30 0 99,93 1,15
7 24.10.2017 06:00 0 99,93 1,22
8 24.10.2017 05:30 0 99,93 1,56
9 24.10.2017 05:00 0 99,93 1,47
10 24.10.2017 04:30 0 99,93 1,66
11 24.10.2017 04:00 0 99,93 1,93
12 24.10.2017 03:30 0 99,93 2,25
13 24.10.2017 03:00 0 99,93 2,44
14 24.10.2017 02:30 0 99,93 2,64
15 24.10.2017 02:00 0 99,93 3,1
16 24.10.2017 01:30 0 99,93 3,2
17 24.10.2017 01:00 0 99,93 3,2
18 24.10.2017 00:30 0 99,93 3,25
19 24.10.2017 00:00 0 99,93 3,52
20 23.10.2017 23:30 0 99,93 3,83
21 23.10.2017 23:00 0 99,93 4,22
22 23.10.2017 22:30 0 99,93 4,37
23 23.10.2017 22:00 0 99,93 4,57
24 23.10.2017 21:30 0 98,95 4,76
25 23.10.2017 21:00 0 97,9 5,3
26 23.10.2017 20:30 0 96,85 5,91
27 23.10.2017 20:00 0 95,87 6,69
28 23.10.2017 19:30 0 94,7 7,59
29 23.10.2017 19:00 0 92,82 8,25
30 23.10.2017 18:30 0 88,3 9,3
31 23.10.2017 18:00 0 82,27 10,48
32 23.10.2017 17:30 0 73,41 11,77
33 23.10.2017 17:00 0 67,94 12,87
34 23.10.2017 16:30 0 62,93 13,75
35 23.10.2017 16:00 0 58,02 14,6
36 23.10.2017 15:30 0 53,16 14,82
37 23.10.2017 15:00 0 51,62 14,77
38 23.10.2017 14:30 0 44,91 15,58
39 23.10.2017 14:00 0 44,84 15,9
40 23.10.2017 13:30 0 46,67 14,99
41 23.10.2017 13:00 0 47,94 14,77
42 23.10.2017 12:30 0 50,5 15,09
43 23.10.2017 12:00 0 54,02 15,04
44 23.10.2017 11:30 0 58,36 14,21
© 2011 Ministrstvo za kmetijstvo, gozdarstvo in prehrano. Vse pravice pridržane.